Time,TemperatureF,DewpointF,PressureIn,WindDirection,WindDirectionDegrees,WindSpeedMPH,WindSpeedGustMPH,Humidity,HourlyPrecipIn,Conditions,Clouds,dailyrainin,SoftwareType,DateUTC
2013-01-31 00:04:00,50.9,48.2,30.17,SSE,157,0.0,0.0,91,0.00,,,0.00,,2013-01-30 23:04:00,
2013-01-31 00:09:00,50.9,48.2,30.17,South,180,0.4,0.8,91,0.00,,,0.00,,2013-01-30 23:09:00,
2013-01-31 00:14:00,51.1,48.4,30.20,SSE,157,0.8,1.7,91,0.00,,,0.00,,2013-01-30 23:14:00,
2013-01-31 00:19:00,51.1,48.4,30.20,SSW,202,1.7,1.7,91,0.00,,,0.00,,2013-01-30 23:19:00,
2013-01-31 00:24:00,51.1,48.4,30.17,SSW,202,0.0,0.0,91,0.00,,,0.00,,2013-01-30 23:24:00,
2013-01-31 00:29:00,51.3,48.4,30.17,SW,225,0.4,0.0,90,0.00,,,0.00,,2013-01-30 23:29:00,
2013-01-31 00:34:00,51.3,48.4,30.20,SW,225,0.4,0.0,90,0.00,,,0.00,,2013-01-30 23:34:00,
2013-01-31 00:39:00,51.3,48.4,30.20,SSW,202,0.4,0.0,90,0.00,,,0.00,,2013-01-30 23:39:00,
2013-01-31 00:44:00,51.3,48.4,30.17,SW,225,0.0,0.0,90,0.00,,,0.00,,2013-01-30 23:44:00,
2013-01-31 11:36:00,55.0,45.7,30.23,NNE,22,4.4,4.9,71,0.00,,,0.00,,2013-01-31 10:36:00,
2013-01-31 11:46:00,55.2,45.9,30.20,North,0,2.6,4.9,71,0.00,,,0.00,,2013-01-31 10:46:00,
2013-01-31 11:51:00,55.2,45.5,30.20,North,0,3.5,6.7,70,0.00,,,0.00,,2013-01-31 10:51:00,
2013-01-31 11:56:00,55.0,45.3,30.20,NE,45,4.9,7.6,70,0.00,,,0.00,,2013-01-31 10:56:00,
2013-01-31 12:01:00,54.9,45.5,30.20,NE,45,5.3,6.2,71,0.00,,,0.00,,2013-01-31 11:01:00,
2013-01-31 12:06:00,55.0,45.7,30.20,North,0,4.4,8.5,71,0.00,,,0.00,,2013-01-31 11:06:00,
2013-01-31 12:11:00,55.2,46.2,30.20,NNE,22,2.6,3.1,72,0.00,,,0.00,,2013-01-31 11:11:00,
2013-01-31 12:21:00,55.0,45.7,30.20,NNE,22,6.2,6.2,71,0.00,,,0.00,,2013-01-31 11:21:00,
2013-01-31 12:26:00,55.8,46.8,30.23,NNE,22,2.6,3.5,72,0.00,,,0.00,,2013-01-31 11:26:00,
2013-01-31 12:31:00,56.1,46.8,30.23,NNE,22,2.2,5.3,71,0.00,,,0.00,,2013-01-31 11:31:00,
2013-01-31 12:36:00,56.1,46.4,30.23,NE,45,3.1,4.4,70,0.00,,,0.00,,2013-01-31 11:36:00,
2013-01-31 12:41:00,56.1,46.4,30.23,NE,45,2.6,4.4,70,0.00,,,0.00,,2013-01-31 11:41:00,
2013-01-31 12:46:00,56.3,46.2,30.23,NE,45,3.1,5.3,69,0.00,,,0.00,,2013-01-31 11:46:00,
2013-01-31 12:51:00,56.3,46.6,30.23,NNE,22,2.6,4.0,70,0.00,,,0.00,,2013-01-31 11:51:00,
2013-01-31 12:56:00,56.5,46.8,30.23,NNE,22,1.7,1.7,70,0.00,,,0.00,,2013-01-31 11:56:00,
2013-01-31 13:01:00,56.7,46.9,30.23,NE,45,2.6,4.4,70,0.00,,,0.00,,2013-01-31 12:01:00,
2013-01-31 13:06:00,56.5,46.8,30.20,NNE,22,2.2,2.6,70,0.00,,,0.00,,2013-01-31 12:06:00,
2013-01-31 13:11:00,56.8,47.1,30.20,NNE,22,2.2,3.5,70,0.00,,,0.00,,2013-01-31 12:11:00,
2013-01-31 13:16:00,57.2,46.9,30.20,NNE,22,2.2,2.6,69,0.00,,,0.00,,2013-01-31 12:16:00,
2013-01-31 13:21:00,57.4,46.8,30.20,NE,45,1.3,4.4,68,0.00,,,0.00,,2013-01-31 12:21:00,
2013-01-31 13:26:00,57.7,47.5,30.23,NNE,22,1.7,4.0,69,0.00,,,0.00,,2013-01-31 12:26:00,
2013-01-31 13:31:00,57.7,47.1,30.23,NE,45,2.2,2.6,68,0.00,,,0.00,,2013-01-31 12:31:00,
2013-01-31 13:36:00,57.7,47.1,30.23,North,0,0.4,0.0,68,0.00,,,0.00,,2013-01-31 12:36:00,
2013-01-31 13:41:00,58.1,47.1,30.23,NE,45,0.8,2.6,67,0.00,,,0.00,,2013-01-31 12:41:00,
2013-01-31 13:46:00,58.5,47.8,30.23,North,0,0.4,1.3,68,0.00,,,0.00,,2013-01-31 12:46:00,
2013-01-31 13:51:00,59.0,48.4,30.23,NNW,337,0.8,0.0,68,0.00,,,0.00,,2013-01-31 12:51:00,
2013-01-31 13:56:00,59.5,48.6,30.20,NNW,337,0.8,1.3,67,0.00,,,0.00,,2013-01-31 12:56:00,
2013-01-31 14:01:00,59.7,48.2,30.20,North,0,0.4,2.6,66,0.00,,,0.00,,2013-01-31 13:01:00,
2013-01-31 14:06:00,59.4,47.5,30.23,ESE,112,1.3,1.3,65,0.00,,,0.00,,2013-01-31 13:06:00,
2013-01-31 14:11:00,59.5,47.7,30.23,NNW,337,1.3,1.7,65,0.00,,,0.00,,2013-01-31 13:11:00,
2013-01-31 14:16:00,59.7,47.5,30.20,NNE,22,0.8,3.5,64,0.00,,,0.00,,2013-01-31 13:16:00,
2013-01-31 14:21:00,59.7,47.8,30.20,NE,45,0.4,0.0,65,0.00,,,0.00,,2013-01-31 13:21:00,
2013-01-31 14:26:00,60.3,48.0,30.17,North,0,0.8,1.3,64,0.00,,,0.00,,2013-01-31 13:26:00,
2013-01-31 14:31:00,60.6,48.7,30.17,North,0,0.0,0.0,65,0.00,,,0.00,,2013-01-31 13:31:00,
2013-01-31 14:36:00,60.8,48.0,30.23,NW,315,0.8,0.8,63,0.00,,,0.00,,2013-01-31 13:36:00,
2013-01-31 14:41:00,60.4,47.7,30.23,NE,45,0.8,0.8,63,0.00,,,0.00,,2013-01-31 13:41:00,
2013-01-31 14:46:00,60.8,48.0,30.23,NE,45,0.8,2.6,63,0.00,,,0.00,,2013-01-31 13:46:00,
2013-01-31 14:51:00,60.8,48.4,30.23,NNW,337,0.4,2.2,64,0.00,,,0.00,,2013-01-31 13:51:00,
2013-01-31 14:56:00,61.2,48.4,30.20,NW,315,0.8,1.7,63,0.00,,,0.00,,2013-01-31 13:56:00,
2013-01-31 15:01:00,60.8,47.7,30.20,NW,315,0.8,1.3,62,0.00,,,0.00,,2013-01-31 14:01:00,
2013-01-31 15:06:00,60.4,47.7,30.20,North,0,0.0,0.0,63,0.00,,,0.00,,2013-01-31 14:06:00,
2013-01-31 15:11:00,60.8,48.4,30.20,WNW,292,0.0,0.0,64,0.00,,,0.00,,2013-01-31 14:11:00,
2013-01-31 15:16:00,61.7,49.3,30.20,SW,225,0.0,0.0,64,0.00,,,0.00,,2013-01-31 14:16:00,
2013-01-31 15:21:00,62.6,50.2,30.20,NE,45,0.0,1.3,64,0.00,,,0.00,,2013-01-31 14:21:00,
2013-01-31 15:26:00,62.6,49.3,30.20,SE,135,1.3,1.3,62,0.00,,,0.00,,2013-01-31 14:26:00,
2013-01-31 15:31:00,62.2,48.9,30.20,SW,225,0.8,2.2,62,0.00,,,0.00,,2013-01-31 14:31:00,
2013-01-31 15:36:00,62.4,49.1,30.20,SSW,202,0.8,0.0,62,0.00,,,0.00,,2013-01-31 14:36:00,
2013-01-31 15:46:00,62.6,48.9,30.20,SW,225,1.3,1.3,61,0.00,,,0.00,,2013-01-31 14:46:00,
2013-01-31 15:51:00,62.4,48.7,30.20,WSW,247,0.4,0.4,61,0.00,,,0.00,,2013-01-31 14:51:00,
2013-01-31 15:56:00,62.2,48.0,30.20,WSW,247,2.6,2.6,60,0.00,,,0.00,,2013-01-31 14:56:00,
2013-01-31 16:01:00,62.1,48.4,30.20,SW,225,2.2,4.4,61,0.00,,,0.00,,2013-01-31 15:01:00,
2013-01-31 16:11:00,61.2,47.5,30.17,SW,225,3.5,3.5,61,0.00,,,0.00,,2013-01-31 15:11:00,
2013-01-31 16:16:00,61.2,48.0,30.20,SW,225,2.2,4.4,62,0.00,,,0.00,,2013-01-31 15:16:00,
2013-01-31 16:21:00,61.0,47.8,30.20,WSW,247,3.1,3.5,62,0.00,,,0.00,,2013-01-31 15:21:00,
2013-01-31 16:26:00,60.6,47.8,30.17,WNW,292,3.1,6.7,63,0.00,,,0.00,,2013-01-31 15:26:00,
2013-01-31 16:31:00,60.1,48.2,30.17,SW,225,5.3,5.3,65,0.00,,,0.00,,2013-01-31 15:31:00,
2013-01-31 16:36:00,59.7,48.6,30.20,WSW,247,2.6,4.0,67,0.00,,,0.00,,2013-01-31 15:36:00,
2013-01-31 16:41:00,59.0,48.7,30.20,WSW,247,2.6,3.1,69,0.00,,,0.00,,2013-01-31 15:41:00,
2013-01-31 16:46:00,58.5,48.6,30.20,SW,225,3.1,3.1,70,0.00,,,0.00,,2013-01-31 15:46:00,
2013-01-31 16:51:00,57.9,48.9,30.20,SW,225,2.6,3.5,72,0.00,,,0.00,,2013-01-31 15:51:00,
2013-01-31 16:56:00,57.6,48.9,30.20,SW,225,2.2,3.5,73,0.00,,,0.00,,2013-01-31 15:56:00,
2013-01-31 17:01:00,57.4,49.1,30.20,SW,225,3.1,3.1,74,0.00,,,0.00,,2013-01-31 16:01:00,
2013-01-31 17:06:00,57.0,48.7,30.20,SSW,202,3.5,6.2,74,0.00,,,0.00,,2013-01-31 16:06:00,
2013-01-31 17:11:00,56.7,48.4,30.20,SW,225,3.1,4.0,74,0.00,,,0.00,,2013-01-31 16:11:00,
2013-01-31 17:16:00,56.3,48.0,30.23,SSW,202,3.5,3.5,74,0.00,,,0.00,,2013-01-31 16:16:00,
2013-01-31 17:21:00,55.9,47.7,30.23,SW,225,1.7,4.4,74,0.00,,,0.00,,2013-01-31 16:21:00,
2013-01-31 17:26:00,55.6,47.7,30.23,WSW,247,0.8,1.7,75,0.00,,,0.00,,2013-01-31 16:26:00,
2013-01-31 17:31:00,55.2,47.3,30.23,West,270,0.8,0.8,75,0.00,,,0.00,,2013-01-31 16:31:00,
2013-01-31 17:36:00,55.0,47.1,30.23,SW,225,0.8,3.5,75,0.00,,,0.00,,2013-01-31 16:36:00,
2013-01-31 17:41:00,54.9,47.3,30.23,WNW,292,0.0,0.0,76,0.00,,,0.00,,2013-01-31 16:41:00,
2013-01-31 17:46:00,54.7,47.1,30.20,South,180,0.8,0.8,76,0.00,,,0.00,,2013-01-31 16:46:00,
2013-01-31 17:51:00,54.5,47.3,30.20,SSE,157,0.4,0.0,77,0.00,,,0.00,,2013-01-31 16:51:00,
2013-01-31 17:56:00,54.3,47.5,30.20,South,180,1.3,1.3,78,0.00,,,0.00,,2013-01-31 16:56:00,
2013-01-31 18:01:00,54.1,47.7,30.20,SSW,202,1.7,1.7,79,0.00,,,0.00,,2013-01-31 17:01:00,
2013-01-31 18:06:00,54.1,48.0,30.23,SSE,157,2.2,6.2,80,0.00,,,0.00,,2013-01-31 17:06:00,
2013-01-31 18:11:00,54.0,47.8,30.23,SSE,157,0.8,0.0,80,0.00,,,0.00,,2013-01-31 17:11:00,
2013-01-31 18:16:00,54.0,48.2,30.20,South,180,2.6,2.6,81,0.00,,,0.00,,2013-01-31 17:16:00,
2013-01-31 18:21:00,54.0,48.2,30.20,WNW,292,2.6,4.0,81,0.00,,,0.00,,2013-01-31 17:21:00,
2013-01-31 18:26:00,53.8,48.4,30.23,SSE,157,1.7,4.0,82,0.00,,,0.00,,2013-01-31 17:26:00,
2013-01-31 18:31:00,53.8,48.4,30.23,SSW,202,1.3,2.2,82,0.00,,,0.00,,2013-01-31 17:31:00,
2013-01-31 18:36:00,53.8,48.4,30.23,SSW,202,1.3,2.2,82,0.00,,,0.00,,2013-01-31 17:36:00,
2013-01-31 18:41:00,53.8,48.6,30.20,South,180,2.6,9.3,83,0.00,,,0.00,,2013-01-31 17:41:00,
2013-01-31 18:51:00,53.6,48.6,30.23,SE,135,3.5,4.9,83,0.00,,,0.00,,2013-01-31 17:51:00,
2013-01-31 18:56:00,53.6,48.6,30.20,SSW,202,3.5,6.2,83,0.00,,,0.00,,2013-01-31 17:56:00,
2013-01-31 19:01:00,53.8,48.4,30.20,South,180,3.1,5.3,82,0.00,,,0.00,,2013-01-31 18:01:00,
2013-01-31 19:06:00,53.6,47.8,30.20,SE,135,3.1,3.1,81,0.00,,,0.00,,2013-01-31 18:06:00,
2013-01-31 19:11:00,53.6,47.5,30.20,SE,135,3.5,4.4,80,0.00,,,0.00,,2013-01-31 18:11:00,
2013-01-31 19:16:00,53.6,47.1,30.20,South,180,3.1,4.9,79,0.00,,,0.00,,2013-01-31 18:16:00,
2013-01-31 19:21:00,53.6,47.5,30.20,SSE,157,4.0,6.2,80,0.00,,,0.00,,2013-01-31 18:21:00,
2013-01-31 19:26:00,53.6,47.5,30.20,SE,135,3.5,7.6,80,0.00,,,0.00,,2013-01-31 18:26:00,
2013-01-31 19:31:00,53.4,46.9,30.20,SSE,157,4.0,4.4,79,0.00,,,0.00,,2013-01-31 18:31:00,
2013-01-31 19:36:00,53.4,46.9,30.23,SSE,157,3.5,4.0,79,0.00,,,0.00,,2013-01-31 18:36:00,
2013-01-31 19:41:00,53.4,46.9,30.23,SSW,202,2.2,3.1,79,0.00,,,0.00,,2013-01-31 18:41:00,
2013-01-31 19:46:00,53.2,46.8,30.20,SSE,157,2.2,2.2,79,0.00,,,0.00,,2013-01-31 18:46:00,
2013-01-31 19:51:00,53.2,46.4,30.20,NNE,22,3.1,3.1,78,0.00,,,0.00,,2013-01-31 18:51:00,
2013-01-31 19:56:00,53.2,46.4,30.20,ESE,112,2.2,2.2,78,0.00,,,0.00,,2013-01-31 18:56:00,
2013-01-31 20:01:00,53.4,46.0,30.20,South,180,4.0,4.4,76,0.00,,,0.00,,2013-01-31 19:01:00,
2013-01-31 20:06:00,53.4,45.7,30.20,SSE,157,3.1,8.5,75,0.00,,,0.00,,2013-01-31 19:06:00,
2013-01-31 20:11:00,53.2,45.5,30.20,South,180,1.3,1.3,75,0.00,,,0.00,,2013-01-31 19:11:00,
2013-01-31 20:16:00,53.2,45.1,30.20,South,180,1.7,5.3,74,0.00,,,0.00,,2013-01-31 19:16:00,
2013-01-31 20:21:00,53.2,44.8,30.20,SSW,202,5.3,9.3,73,0.00,,,0.00,,2013-01-31 19:21:00,
2013-01-31 20:26:00,53.2,44.8,30.20,SSW,202,6.2,13.8,73,0.00,,,0.00,,2013-01-31 19:26:00,
2013-01-31 20:31:00,53.2,44.8,30.20,SSE,157,4.0,8.5,73,0.00,,,0.00,,2013-01-31 19:31:00,
2013-01-31 20:36:00,53.1,44.6,30.20,SSW,202,1.7,7.6,73,0.00,,,0.00,,2013-01-31 19:36:00,
2013-01-31 20:41:00,52.9,44.4,30.20,ESE,112,1.7,3.1,73,0.00,,,0.00,,2013-01-31 19:41:00,
2013-01-31 20:46:00,53.1,44.6,30.20,ESE,112,1.7,3.5,73,0.00,,,0.00,,2013-01-31 19:46:00,
2013-01-31 20:51:00,52.9,44.1,30.20,SW,225,1.3,1.3,72,0.00,,,0.00,,2013-01-31 19:51:00,
2013-01-31 20:56:00,52.9,44.1,30.17,North,0,1.3,2.6,72,0.00,,,0.00,,2013-01-31 19:56:00,
2013-01-31 21:01:00,52.7,44.2,30.17,NW,315,0.8,3.1,73,0.00,,,0.00,,2013-01-31 20:01:00,
2013-01-31 21:06:00,52.3,44.2,30.20,West,270,3.1,4.9,74,0.00,,,0.00,,2013-01-31 20:06:00,
2013-01-31 21:11:00,52.2,44.4,30.20,West,270,2.6,2.6,75,0.00,,,0.00,,2013-01-31 20:11:00,
2013-01-31 21:16:00,52.0,44.6,30.20,SE,135,2.6,3.5,76,0.00,,,0.00,,2013-01-31 20:16:00,
2013-01-31 21:21:00,52.2,44.8,30.20,SSE,157,5.8,10.7,76,0.00,,,0.00,,2013-01-31 20:21:00,
2013-01-31 21:26:00,52.2,44.8,30.17,SSE,157,5.3,6.2,76,0.00,,,0.00,,2013-01-31 20:26:00,
2013-01-31 21:31:00,52.2,44.4,30.17,South,180,6.2,7.6,75,0.00,,,0.00,,2013-01-31 20:31:00,
2013-01-31 21:36:00,52.2,44.8,30.20,SSW,202,4.4,4.4,76,0.00,,,0.00,,2013-01-31 20:36:00,
2013-01-31 21:41:00,52.0,45.0,30.20,South,180,2.6,4.0,77,0.00,,,0.00,,2013-01-31 20:41:00,
2013-01-31 21:46:00,51.8,44.8,30.17,SE,135,3.1,4.9,77,0.00,,,0.00,,2013-01-31 20:46:00,
2013-01-31 21:51:00,52.0,45.0,30.17,SSE,157,4.0,5.8,77,0.00,,,0.00,,2013-01-31 20:51:00,
2013-01-31 22:01:00,52.0,44.6,30.20,West,270,3.1,4.9,76,0.00,,,0.00,,2013-01-31 21:01:00,
2013-01-31 22:06:00,51.8,44.4,30.20,WNW,292,4.9,8.5,76,0.00,,,0.00,,2013-01-31 21:06:00,
2013-01-31 22:11:00,51.6,44.6,30.20,ESE,112,1.7,3.5,77,0.00,,,0.00,,2013-01-31 21:11:00,
2013-01-31 22:16:00,51.4,44.8,30.20,NW,315,1.7,4.4,78,0.00,,,0.00,,2013-01-31 21:16:00,
2013-01-31 22:21:00,51.4,44.8,30.20,SW,225,2.2,3.5,78,0.00,,,0.00,,2013-01-31 21:21:00,
2013-01-31 22:26:00,51.3,44.6,30.20,South,180,2.6,3.5,78,0.00,,,0.00,,2013-01-31 21:26:00,
2013-01-31 22:31:00,51.3,44.6,30.20,ESE,112,1.7,3.1,78,0.00,,,0.00,,2013-01-31 21:31:00,
2013-01-31 22:36:00,51.3,44.6,30.23,South,180,1.3,2.6,78,0.00,,,0.00,,2013-01-31 21:36:00,
2013-01-31 22:41:00,51.3,44.6,30.23,SSW,202,2.2,5.3,78,0.00,,,0.00,,2013-01-31 21:41:00,
2013-01-31 22:46:00,51.3,44.6,30.20,South,180,2.2,4.0,78,0.00,,,0.00,,2013-01-31 21:46:00,
2013-01-31 22:51:00,51.4,44.8,30.20,South,180,3.1,4.4,78,0.00,,,0.00,,2013-01-31 21:51:00,
2013-01-31 22:56:00,51.4,44.8,30.20,South,180,1.7,1.7,78,0.00,,,0.00,,2013-01-31 21:56:00,
2013-01-31 23:01:00,51.4,44.8,30.20,SSE,157,1.7,3.5,78,0.00,,,0.00,,2013-01-31 22:01:00,
2013-01-31 23:06:00,51.3,43.5,30.20,SSW,202,3.5,3.5,75,0.00,,,0.00,,2013-01-31 22:06:00,
2013-01-31 23:11:00,51.4,43.3,30.20,South,180,1.3,2.6,74,0.00,,,0.00,,2013-01-31 22:11:00,
2013-01-31 23:16:00,51.4,43.3,30.20,SSW,202,0.4,0.8,74,0.00,,,0.00,,2013-01-31 22:16:00,
2013-01-31 23:21:00,51.3,43.2,30.20,SSW,202,0.8,0.8,74,0.00,,,0.00,,2013-01-31 22:21:00,
2013-01-31 23:26:00,51.3,43.2,30.20,South,180,0.4,1.3,74,0.00,,,0.00,,2013-01-31 22:26:00,
2013-01-31 23:31:00,51.3,42.8,30.20,West,270,2.2,4.0,73,0.00,,,0.00,,2013-01-31 22:31:00,
2013-01-31 23:36:00,51.4,42.6,30.20,SW,225,0.8,0.0,72,0.00,,,0.00,,2013-01-31 22:36:00,
2013-01-31 23:41:00,51.3,42.4,30.20,SW,225,0.0,0.0,72,0.00,,,0.00,,2013-01-31 22:41:00,
2013-01-31 23:46:00,51.3,42.4,30.17,SW,225,0.0,0.0,72,0.00,,,0.00,,2013-01-31 22:46:00,
2013-01-31 23:51:00,51.1,42.3,30.17,SSW,202,0.0,0.0,72,0.00,,,0.00,,2013-01-31 22:51:00,
2013-01-31 23:56:00,50.9,42.1,30.17,South,180,0.0,0.0,72,0.00,,,0.00,,2013-01-31 22:56:00,